Ionia, MI

1:01 AM EST on November 22, 2019 (GMT -0500)
Ionia

Weather History for KY70 - September, 2019

Change the Weather History Date:

Tuesday, September 17, 2019

  Actual Average (WUND) Record (WUND)
Temperature  
Mean Temperature 63 °F -  
Max Temperature 70 °F - - (-1)
Min Temperature 56 °F - - (-1)
Degree Days  
Heating Degree Days 2    
Growing Degree Days 13 (Base 50)    
Moisture  
Dew Point 59 °F    
Average Humidity 91    
Maximum Humidity 96    
Minimum Humidity 69    
Precipitation  
Precipitation 0.00 in - - ()
Sea Level Pressure  
Sea Level Pressure 30.20 in    
Wind  
Wind Speed 4 mph ()    
Max Wind Speed 8 mph    
Max Gust Speed -    
Visibility 6.3 miles    
Events Fog    
Averages and records for this station are not official NWS values.
T = Trace of Precipitation, MM = Missing Value Source: Averaged Metar Reports

Daily Weather History Graph

Daily Weather History Graph

Search for Another Location

Airport or City:

Astronomy

Sep. 17, 2019 Rise Set
Actual Time 7:21 AM EDT 7:46 PM EDT
Civil Twilight 6:53 AM EDT 8:15 PM EDT
Nautical Twilight 6:19 AM EDT 8:48 PM EDT
Astronomical Twilight 5:45 AM EDT 9:23 PM EDT
Moon 9:45 PM EDT (9/17) 10:29 AM EDT (9/17)
Length of Visible Light 13h 21m
Length of Day
12h 25m
Waning Gibbous, 89% of the Moon is Illuminated
Sep 17
Waning Gibbous
Sep 21
Last Quarter
Sep 28
New
Oct 5
First Quarter
Oct 13
Full

Hourly Weather History & Observations

Time (EDT) Temp. Dew Point Humidity Pressure Visibility Wind Dir Wind Speed Gust Speed Precip Events Conditions
12:15 AM 63.7 °F 61.7 °F 93% 30.15 in 10.0 mi ENE 4.6 mph - N/A   Clear
12:35 AM 63.0 °F 61.2 °F 94% 30.15 in 10.0 mi ENE 5.8 mph - N/A   Clear
12:55 AM 62.6 °F 60.8 °F 94% 30.16 in 10.0 mi NE 4.6 mph - N/A   Clear
1:18 AM 61.9 °F 60.1 °F 94% 30.16 in 10.0 mi ENE 5.8 mph - N/A   Clear
1:36 AM 61.9 °F 60.1 °F 94% 30.16 in 10.0 mi NE 5.8 mph - N/A   Clear
1:55 AM 61.3 °F 59.9 °F 95% 30.17 in 10.0 mi ENE 5.8 mph - N/A   Clear
1:56 AM 61.5 °F 59.9 °F 94% 30.17 in 10.0 mi ENE 6.9 mph - N/A   Clear
2:15 AM 61.3 °F 59.9 °F 95% 30.16 in 10.0 mi ENE 4.6 mph - N/A   Clear
2:16 AM 61.3 °F 59.7 °F 94% 30.16 in 10.0 mi ENE 4.6 mph - N/A   Clear
2:39 AM 61.2 °F 59.5 °F 94% 30.17 in 10.0 mi ENE 5.8 mph - N/A   Clear
2:57 AM 60.6 °F 59.0 °F 94% 30.17 in 10.0 mi NE 4.6 mph - N/A   Clear
3:15 AM 60.3 °F 59.0 °F 96% 30.17 in 7.0 mi ENE 5.8 mph - N/A   Clear
3:35 AM 60.1 °F 58.8 °F 96% 30.17 in 7.0 mi ENE 6.9 mph - N/A   Clear
3:55 AM 59.9 °F 58.6 °F 96% 30.17 in 5.0 mi ENE 5.8 mph - N/A   Clear
4:18 AM 59.4 °F 58.1 °F 96% 30.18 in 3.0 mi Calm Calm - N/A   Scattered Clouds
4:36 AM 59.2 °F 58.1 °F 96% 30.18 in 1.2 mi Calm Calm - N/A   Overcast
4:55 AM 59.2 °F 58.1 °F 96% 30.19 in 0.2 mi Calm Calm - N/A Fog Fog
4:56 AM 59.2 °F 58.1 °F 96% 30.19 in 0.2 mi NE 3.5 mph - N/A Fog Fog
5:15 AM 59.4 °F 58.1 °F 96% 30.19 in 0.8 mi NE 4.6 mph - N/A   Overcast
5:16 AM 59.4 °F 58.1 °F 96% 30.19 in 0.8 mi NE 4.6 mph - N/A   Overcast
5:39 AM 58.8 °F 57.6 °F 96% 30.19 in 2.0 mi NE 3.5 mph - N/A   Overcast
5:57 AM 57.9 °F 56.5 °F 95% 30.19 in 4.0 mi NE 4.6 mph - N/A   Scattered Clouds
6:15 AM 57.4 °F 56.3 °F 96% 30.19 in 5.0 mi ENE 5.8 mph - N/A   Clear
6:35 AM 57.2 °F 55.9 °F 96% 30.20 in 5.0 mi NE 4.6 mph - N/A   Scattered Clouds
6:55 AM 56.8 °F 55.6 °F 96% 30.21 in 1.2 mi NE 4.6 mph - N/A   Overcast
7:00 AM 56.8 °F 55.6 °F 96% 30.21 in 1.5 mi NE 5.8 mph - N/A   Overcast
7:18 AM 57.2 °F 55.8 °F 95% 30.22 in 0.2 mi NE 4.6 mph - N/A Fog Fog
7:36 AM 57.2 °F 55.9 °F 96% 30.23 in 0.2 mi ENE 5.8 mph - N/A Fog Fog
7:55 AM 57.7 °F 56.5 °F 96% 30.23 in 0.5 mi ENE 6.9 mph - N/A Fog Fog
7:56 AM 57.7 °F 56.5 °F 96% 30.23 in 0.5 mi NE 8.1 mph - N/A Fog Fog
8:15 AM 57.9 °F 56.5 °F 95% 30.23 in 0.2 mi ENE 5.8 mph - N/A Fog Fog
8:39 AM 57.7 °F 56.7 °F 96% 30.24 in 0.2 mi NE 6.9 mph - N/A Fog Fog
8:57 AM 57.9 °F 56.7 °F 96% 30.24 in 0.5 mi ENE 5.8 mph - N/A Fog Fog
9:15 AM 57.7 °F 56.5 °F 96% 30.24 in 0.2 mi East 5.8 mph - N/A Fog Fog
9:16 AM 57.7 °F 56.5 °F 96% 30.24 in 0.5 mi East 5.8 mph - N/A Fog Fog
9:35 AM 57.9 °F 56.7 °F 96% 30.25 in 1.8 mi NE 5.8 mph - N/A   Overcast
9:36 AM 57.9 °F 56.7 °F 96% 30.25 in 1.8 mi ENE 5.8 mph - N/A   Overcast
9:55 AM 57.7 °F 56.7 °F 96% 30.25 in 0.8 mi East 4.6 mph - N/A   Overcast
10:17 AM 57.9 °F 56.7 °F 96% 30.25 in 0.5 mi East 4.6 mph - N/A Fog Fog
10:36 AM 57.9 °F 56.7 °F 96% 30.25 in 2.0 mi East 6.9 mph - N/A   Overcast
10:55 AM 57.9 °F 56.7 °F 96% 30.25 in 1.2 mi NE 4.6 mph - N/A   Overcast
10:56 AM 57.9 °F 56.7 °F 96% 30.25 in 1.2 mi ENE 5.8 mph - N/A   Overcast
11:15 AM 58.3 °F 57.2 °F 96% 30.24 in 1.5 mi East 5.8 mph - N/A   Overcast
11:16 AM 58.3 °F 57.2 °F 96% 30.24 in 1.5 mi East 4.6 mph - N/A   Overcast
11:39 AM 58.8 °F 57.6 °F 96% 30.24 in 7.0 mi ENE 4.6 mph - N/A   Overcast
11:57 AM 59.4 °F 58.3 °F 96% 30.24 in 7.0 mi ENE 6.9 mph - N/A   Overcast
12:16 PM 59.9 °F 58.8 °F 96% 30.24 in 10.0 mi East 3.5 mph - N/A   Overcast
12:35 PM 60.3 °F 59.2 °F 96% 30.23 in 10.0 mi ESE 5.8 mph - N/A   Overcast
12:36 PM 60.3 °F 59.2 °F 96% 30.23 in 10.0 mi ESE 3.5 mph - N/A   Overcast
12:55 PM 61.0 °F 59.2 °F 94% 30.23 in 10.0 mi East 6.9 mph - N/A   Overcast
12:56 PM 61.0 °F 59.2 °F 94% 30.23 in 10.0 mi East 5.8 mph - N/A   Overcast
1:19 PM 61.3 °F 58.6 °F 91% 30.23 in 10.0 mi East 3.5 mph - N/A   Overcast
1:37 PM 62.2 °F 59.2 °F 90% 30.23 in 10.0 mi Calm Calm - N/A   Overcast
1:55 PM 62.8 °F 59.5 °F 89% 30.23 in 10.0 mi East 4.6 mph - N/A   Overcast
2:15 PM 62.8 °F 59.2 °F 88% 30.24 in 10.0 mi NE 4.6 mph - N/A   Overcast
2:35 PM 63.5 °F 59.0 °F 85% 30.23 in 10.0 mi NE 3.5 mph - N/A   Overcast
2:40 PM 63.9 °F 58.6 °F 83% 30.23 in 10.0 mi Calm Calm - N/A   Overcast
2:58 PM 64.4 °F 59.2 °F 83% 30.23 in 10.0 mi East 6.9 mph - N/A   Overcast
3:16 PM 64.9 °F 59.5 °F 83% 30.22 in 10.0 mi ENE 4.6 mph - N/A   Overcast
3:35 PM 65.7 °F 59.4 °F 80% 30.21 in 10.0 mi ESE 8.1 mph - N/A   Overcast
3:55 PM 67.1 °F 60.1 °F 78% 30.21 in 10.0 mi ENE 6.9 mph - N/A   Overcast
4:19 PM 67.5 °F 59.5 °F 76% 30.21 in 10.0 mi ENE 6.9 mph - N/A   Overcast
4:37 PM 67.6 °F 59.4 °F 75% 30.19 in 10.0 mi ENE 5.8 mph - N/A   Mostly Cloudy
4:55 PM 68.7 °F 59.0 °F 71% 30.19 in 10.0 mi East 8.1 mph - N/A   Scattered Clouds
5:15 PM 69.4 °F 59.4 °F 70% 30.19 in 10.0 mi East 4.6 mph - N/A   Clear
5:16 PM 69.6 °F 59.5 °F 70% 30.19 in 10.0 mi East 6.9 mph - N/A   Clear
5:35 PM 70.0 °F 59.7 °F 70% 30.18 in 10.0 mi NE 6.9 mph - N/A   Clear
5:58 PM 70.0 °F 59.5 °F 69% 30.17 in 10.0 mi East 3.5 mph - N/A   Clear
6:16 PM 70.2 °F 59.4 °F 69% 30.17 in 10.0 mi East 6.9 mph - N/A   Clear
6:35 PM 70.0 °F 59.9 °F 70% 30.17 in 10.0 mi East 4.6 mph - N/A   Clear
6:55 PM 69.8 °F 60.1 °F 71% 30.17 in 10.0 mi Calm Calm - N/A   Clear
7:19 PM 68.0 °F 60.4 °F 77% 30.17 in 10.0 mi Calm Calm - N/A   Clear
7:37 PM 66.9 °F 61.0 °F 81% 30.17 in 10.0 mi Calm Calm - N/A   Clear
7:55 PM 66.0 °F 61.7 °F 86% 30.16 in 10.0 mi Calm Calm - N/A   Clear
8:15 PM 64.4 °F 61.9 °F 92% 30.16 in 10.0 mi Calm Calm - N/A   Clear
8:35 PM 63.0 °F 61.3 °F 94% 30.16 in 10.0 mi NNE 3.5 mph - N/A   Clear
8:58 PM 62.8 °F 61.3 °F 95% 30.16 in 10.0 mi Calm Calm - N/A   Clear
9:16 PM 62.2 °F 60.8 °F 95% 30.17 in 7.0 mi Calm Calm - N/A   Clear
9:35 PM 63.5 °F 60.8 °F 91% 30.17 in 10.0 mi NE 3.5 mph - N/A   Clear
9:55 PM 62.2 °F 60.1 °F 93% 30.17 in 7.0 mi NE 4.6 mph - N/A   Clear
10:19 PM 62.4 °F 60.8 °F 94% 30.17 in 7.0 mi NE 3.5 mph - N/A   Clear
10:37 PM 61.5 °F 60.3 °F 96% 30.17 in 4.0 mi NE 5.8 mph - N/A   Clear
10:55 PM 61.3 °F 60.1 °F 96% 30.17 in 5.0 mi ENE 3.5 mph - N/A   Clear
10:56 PM 61.5 °F 60.3 °F 96% 30.17 in 5.0 mi ENE 3.5 mph - N/A   Clear
11:15 PM 61.7 °F 60.3 °F 95% 30.18 in 7.0 mi Calm Calm - N/A   Clear
11:35 PM 60.3 °F 59.0 °F 96% 30.18 in 0.5 mi Calm Calm - N/A Fog Fog
11:58 PM 61.0 °F 59.9 °F 96% 30.18 in 5.0 mi Calm Calm - N/A   Scattered Clouds